Regional Weather Roundup
Issued by NWS

Home | Current Version | Previous Version | Graphics & Text | Print | Product List | Glossary On
Versions: 1 2 3 4 5 6 7 8 9 10 11 12 13 14 15 16 17 18 19 20 21 22 23 24 25 26 27 28 29 30 31 32 33 34 35 36 37 38 39 40 41 42 43 44 45 46 47 48 49 50
000
ASUS43 KOAX 232010
RWRNE

WEATHER ROUNDUP FOR NEBRASKA
NATIONAL WEATHER SERVICE OMAHA NE
200 PM CST THU NOV 23 2017

NOTES: SATELLITE DATA IS BEING USED TO AUGMENT CLOUD COVER ABOVE
       12000 FEET.
       "FAIR" INDICATES FEW OR NO CLOUDS BELOW 12,000 FEET WITH NO
       SIGNIFICANT WEATHER AND/OR OBSTRUCTIONS TO VISIBILITY.


NEZ001>004-019>022-054>056-232100-
NEBRASKA PANHANDLE

CITY           SKY/WX    TMP DP  RH WIND       PRES   REMARKS
SCOTTSBLUFF    CLOUDY    72  36  26 W23G31    29.93F
ALLIANCE       SUNNY     71  39  31 W15       29.93F
CHADRON        SUNNY     70  39  32 SW9       29.87F
GORDON         FAIR      69  38  33 W14       29.89F
KIMBALL        SUNNY     68  32  25 W29G36    30.01F
SIDNEY         CLOUDY    70  34  26 W15       30.00F
$$

NEZ057>060-069>072-079>082-232100-
SOUTHWEST NEBRASKA

CITY           SKY/WX    TMP DP  RH WIND       PRES   REMARKS
NORTH PLATTE   SUNNY     71  43  36 W12       29.93F
IMPERIAL       SUNNY     72  38  29 NW12G20   29.96F
LEXINGTON      SUNNY     74  40  30 SW10      29.92F
MCCOOK         SUNNY     70  43  37 W13       29.96F
OGALLALA       SUNNY     71  40  32 W10       29.95F
$$

NEZ005>010-023>029-035>040-094-232100-
NORTH CENTRAL NEBRASKA

CITY           SKY/WX    TMP DP  RH WIND       PRES   REMARKS
VALENTINE      SUNNY     74  40  29 SW14      29.84F
AINSWORTH      SUNNY     72  41  32 SW15      29.85F
BROKEN BOW     SUNNY     73  42  32 SW13      29.89F
O`NEILL        SUNNY     71  44  37 SW13      29.85F
ORD            SUNNY     72  41  32 SW15      29.87F
THEDFORD       SUNNY     73  40  30 W18       29.89F
$$

NEZ041-046>049-061>064-073>077-083>087-232100-
SOUTH CENTRAL NEBRASKA

CITY           SKY/WX    TMP DP  RH WIND       PRES   REMARKS
GRAND ISLAND   SUNNY     71  42  35 SW15      29.92F
AURORA         SUNNY     71  40  32 W15       29.92F
HASTINGS       SUNNY     71  39  31 SW12G17   29.94F
HEBRON         SUNNY     73  39  29 SW8       29.94F
HOLDREGE       SUNNY     70  43  37 SW10      29.94F
KEARNEY        SUNNY     72  41  32 SW16      29.92F
YORK           SUNNY     72  41  33 SW13      29.92F
$$

NEZ011>018-030>034-042>045-232100-
NORTHEAST NEBRASKA

CITY           SKY/WX    TMP DP  RH WIND       PRES   REMARKS
NORFOLK        MOSUNNY   70  42  36 SW17      29.85F
ALBION         SUNNY     72  43  34 SW14G22   29.87F
BLAIR          SUNNY     60  38  43 SW6       29.91F
COLUMBUS       SUNNY     69  43  38 S14       29.89F
FREMONT        SUNNY     62  37  40 S7        29.91F
TEKAMAH        SUNNY     60  36  40 S8        29.90F
WAYNE          CLOUDY    66  36  32 S13       29.86F
$$

NEZ050>053-065>068-078-088>093-232100-
SOUTHEAST NEBRASKA

CITY           SKY/WX    TMP DP  RH WIND       PRES   REMARKS
LINCOLN        SUNNY     67  40  37 S6        29.93F
OMAHA EPPLEY   MOSUNNY   59  36  42 S7        29.92F
BEATRICE       SUNNY     70  42  36 SW8       29.94F
FALLS CITY     SUNNY     64  37  36 CALM      29.95F
NEBRASKA CITY  SUNNY     63  39  40 W3        29.94F
PLATTSMOUTH    SUNNY     62  37  40 SW3       29.93F
$$

NEZ044-045-051>053-067-232100-
OMAHA AREA

CITY           SKY/WX    TMP DP  RH WIND       PRES   REMARKS
OMAHA EPPLEY   MOSUNNY   59  36  42 S7        29.92F
BLAIR          SUNNY     60  38  43 SW6       29.91F
FREMONT        SUNNY     62  37  40 S7        29.91F
MILLARD        SUNNY     62  38  41 S3        29.92F
OFFUTT AFB     SUNNY     60  36  40 SE3       29.92F
PLATTSMOUTH    SUNNY     62  37  40 SW3       29.93F
WAHOO          FAIR      66  38  35 S7        29.91F
$$




USA.gov is the U.S. government's official web portal to all federal, state and local government web resources and services.